Wind_Speed
14 14 14 14 14 14 14 14 15 15 15 14 14 14 15 15 15 15 15 16 16 16 16 16 16 16 16 17 17 17 18 18 18 18 18 19 19 19 19 19 19 19 19
15 14 14 14 14 14 14 14 14 14 14 14 15 15 15 16 16 16 16 17 17 17 17 17 17 17 17 17 18 18 18 18 18 18 19 19 19 19 20 20 20 20 21
14 14 13 13 13 13 13 14 14 14 15 15 15 16 16 16 16 16 17 17 17 17 17 17 17 17 17 18 18 18 18 18 19 19 19 19 19 20 20 21 21 21 22
12 12 12 13 13 13 13 14 14 15 15 15 16 16 16 16 16 17 17 17 17 17 17 17 17 17 17 17 18 18 18 18 19 19 19 19 20 20 21 21 22 22 23
12 12 12 13 13 14 14 14 15 15 15 16 16 16 17 17 17 17 17 17 17 17 17 17 17 17 17 17 17 17 17 18 18 18 18 19 19 20 21 21 22 22 23
13 13 14 14 15 15 15 15 16 16 16 17 17 17 17 17 17 17 18 18 18 17 17 17 17 17 17 17 17 17 17 18 18 18 19 19 20 20 21 21 22 23 23
14 15 15 16 16 16 16 17 17 17 17 18 18 18 18 18 18 18 18 18 19 19 18 18 18 18 18 18 18 18 18 18 19 19 19 19 20 21 21 22 22 23 24
16 16 17 17 18 18 18 18 19 19 19 19 19 19 19 19 19 19 19 19 19 19 19 19 18 18 18 18 18 18 18 18 19 19 19 19 20 21 21 22 22 23 24
18 18 19 19 20 20 20 20 20 20 20 20 20 20 20 20 20 20 20 20 20 20 20 19 19 19 19 19 19 19 19 19 19 20 20 21 21 21 22 22 23 24 25
18 19 20 21 22 22 22 22 22 22 22 22 22 22 22 22 22 22 21 21 21 21 21 21 21 21 20 21 21 21 21 21 21 22 22 22 23 23 24 24 25 25 26
18 20 21 22 22 23 23 23 23 24 24 23 23 23 23 23 24 23 23 23 23 23 23 23 23 23 23 23 23 23 23 24 24 24 25 25 25 26 26 27 27 28 28
19 20 21 22 23 23 24 24 25 25 25 25 25 25 25 25 25 26 25 26 25 26 26 26 26 26 26 26 26 26 27 27 27 27 28 28 29 29 29 30 30 31 31
20 20 21 22 23 24 24 25 25 26 26 27 27 27 27 27 28 28 28 28 28 28 28 29 29 29 29 30 30 30 31 31 31 31 32 32 32 32 33 33 34 34 35
20 20 21 22 23 24 25 26 26 27 27 28 28 29 29 30 30 30 30 31 31 31 32 32 32 33 33 33 34 34 35 35 36 36 36 36 37 37 37 37 38 38 38
20 21 21 22 23 24 25 26 27 27 28 28 29 30 30 31 32 32 33 33 34 34 35 35 36 36 37 38 38 39 40 40 41 41 41 41 41 41 42 42 42 43 43
21 21 21 22 23 24 25 25 26 27 28 28 29 30 31 32 33 33 34 35 36 37 37 38 38 39 40 41 42 43 44 45 45 45 45 46 46 46 46 47 47 47 47
20 21 21 22 22 23 24 25 26 27 27 28 29 30 31 32 33 34 34 35 37 37 38 39 40 41 42 43 44 46 47 47 48 48 49 49 49 50 50 50 51 51 51
20 20 21 22 22 23 24 24 25 26 27 28 29 30 31 32 33 34 34 36 37 37 38 39 40 41 43 44 45 47 48 48 49 50 51 51 52 52 53 54 54 55 55
20 21 22 23 24 24 25 26 27 28 28 29 30 30 31 32 33 33 34 35 36 37 37 39 40 41 42 44 45 47 48 49 50 51 52 52 53 54 55 56 57 57 58
22 23 24 25 26 27 27 28 28 29 30 30 30 31 32 32 33 33 34 35 36 36 37 39 40 41 43 45 46 47 48 49 50 51 52 53 54 55 57 58 59 59 60
24 25 26 27 28 28 28 29 29 30 30 31 31 32 32 32 33 33 34 35 36 37 38 40 41 43 44 46 47 48 48 49 50 51 53 55 56 57 59 60 61 61 62
26 26 27 28 28 28 29 29 29 29 29 30 30 31 31 31 32 33 34 35 37 38 40 41 43 44 45 47 49 51 51 51 53 54 55 57 58 60 61 62 63 64 65
26 27 28 28 28 28 28 27 27 27 27 28 28 29 30 32 33 34 35 37 38 40 41 43 45 47 48 50 52 54 56 56 57 56 57 59 62 64 65 66 67 68 69
28 28 29 29 28 27 26 25 25 25 26 27 29 30 31 32 34 36 37 39 40 42 44 46 48 50 52 54 56 58 60 62 63 63 62 63 65 67 69 70 72 73 73
29 29 29 29 27 26 25 25 26 27 28 29 31 32 33 34 36 38 40 42 44 46 48 50 52 55 57 59 61 63 65 67 69 71 71 71 71 72 73 74 76 77 78
30 30 29 28 27 26 26 27 28 29 30 32 33 35 36 38 40 42 44 46 48 51 53 55 57 60 62 64 66 69 71 73 74 77 78 79 79 80 81 81 81 82 83
Wind_Direction
250 252 253 255 257 258 258 259 260 261 260 260 260 261 260 259 258 257 257 258 257 256 256 255 254 253 254 254 254 255 255 256 256 256 256 256 256 256 257 258 259 260 260
251 251 251 252 254 256 257 259 260 260 261 261 261 262 262 261 260 260 259 258 257 257 256 256 255 254 253 254 255 255 255 256 257 258 258 258 258 258 259 260 261 261 262
248 248 249 250 252 254 257 259 261 262 263 264 265 265 265 264 262 261 260 259 258 257 256 256 256 255 255 255 255 255 256 257 258 259 260 260 260 261 261 262 263 264 264
246 246 248 252 254 256 259 261 264 266 267 267 267 267 266 265 265 264 262 260 259 259 258 256 256 256 256 256 256 257 257 258 259 260 260 261 261 262 263 264 265 265 266
248 250 252 255 258 260 262 264 266 267 268 268 268 268 268 267 267 266 263 261 261 260 259 258 257 257 257 257 257 257 258 259 260 261 262 263 264 264 265 265 266 267 267
255 256 259 261 263 265 266 267 268 268 269 269 270 269 269 269 268 266 265 264 263 262 262 261 260 259 259 258 258 258 259 260 261 262 263 264 265 266 267 267 268 268 269
260 261 262 264 265 267 268 268 269 269 270 270 270 270 270 269 268 266 266 266 265 265 264 263 262 261 260 260 259 259 260 262 263 264 265 266 267 268 269 270 271 271 272
263 264 264 265 266 267 268 269 269 269 269 270 269 269 270 270 269 267 266 265 265 264 263 263 263 262 261 261 261 262 262 263 264 266 267 268 269 271 272 273 273 274 275
263 263 264 265 266 266 267 267 267 268 268 268 268 268 269 269 268 267 266 264 263 262 261 262 263 262 261 261 263 264 265 266 267 268 269 270 271 272 273 274 275 275 276
265 264 264 264 265 266 267 267 267 268 267 267 268 268 268 268 268 267 266 264 264 262 262 262 263 263 262 262 264 265 266 267 268 269 270 271 272 273 273 274 275 276 277
267 267 267 267 267 268 269 268 268 268 268 268 268 268 268 268 267 267 266 265 265 264 263 263 264 263 263 263 264 265 266 267 268 270 271 272 272 273 274 275 276 276 277
271 270 269 269 269 270 270 270 269 269 268 268 267 267 267 268 267 267 266 265 265 264 264 264 264 264 264 265 265 266 266 267 268 269 271 271 273 274 275 275 276 276 277
276 274 273 272 272 271 271 271 270 270 269 269 268 268 268 268 267 267 267 266 266 265 265 265 265 265 266 266 266 267 268 268 269 270 271 272 272 273 274 275 276 276 277
278 277 276 275 274 274 273 272 272 271 271 270 270 270 269 269 269 268 268 268 267 267 266 266 266 266 267 267 268 269 269 270 270 271 272 272 273 273 274 275 275 276 276
280 279 278 277 276 276 275 275 274 274 273 273 272 272 271 271 271 270 270 269 269 268 268 268 268 268 269 269 269 270 271 271 271 272 272 273 273 274 274 274 275 275 276
281 281 281 281 280 279 278 278 277 276 275 274 274 273 273 273 272 272 272 272 271 271 271 271 271 271 271 271 271 271 271 271 272 273 273 273 274 274 274 274 275 275 275
283 284 284 284 284 283 282 281 280 279 278 277 276 275 275 274 274 274 274 273 273 273 273 273 273 272 272 272 272 272 272 272 273 273 273 274 274 274 274 274 274 274 274
286 287 287 287 287 286 286 285 283 282 280 279 279 278 277 277 277 276 276 276 275 275 275 274 273 273 273 273 272 272 273 273 273 273 273 273 273 273 273 273 273 273 273
289 289 290 289 289 289 288 287 286 285 284 283 282 281 280 280 279 279 278 278 278 278 277 277 276 275 275 274 274 273 274 274 274 274 274 274 273 273 273 273 273 273 273
292 291 291 291 291 290 289 288 286 286 285 284 284 283 282 281 281 280 280 279 279 279 279 278 277 277 276 276 275 275 275 275 275 275 275 274 274 274 273 273 273 273 273
292 292 292 291 291 290 289 288 287 286 285 285 284 283 283 283 283 283 282 282 282 282 282 281 280 280 279 279 278 278 277 277 277 276 276 275 275 274 274 274 273 273 273
292 292 292 292 292 292 291 289 287 286 285 285 285 284 284 284 284 284 284 284 285 285 284 284 283 282 282 281 281 280 279 278 278 277 277 277 276 276 275 274 274 273 273
294 294 294 294 294 293 292 290 289 287 287 287 286 286 286 286 286 287 287 288 287 287 287 286 286 285 285 284 284 284 283 282 279 278 277 277 277 276 276 275 274 273 272
294 295 295 295 294 293 292 290 289 288 289 289 289 289 289 288 289 289 290 290 290 290 289 289 289 289 288 288 287 287 286 286 285 283 280 278 276 276 276 276 275 274 273
294 294 294 294 292 291 290 289 289 289 289 290 291 291 291 291 291 292 292 292 292 292 292 291 291 291 290 289 289 288 287 287 286 285 284 282 280 278 276 275 274 274 273
293 293 293 291 289 288 288 288 288 288 289 290 290 291 291 292 293 294 294 294 294 294 293 293 292 292 291 290 290 289 288 287 286 285 285 283 282 280 279 277 275 273 272
Height
5882 5882 5882 5883 5883 5883 5883 5883 5883 5883 5883 5883 5882 5882 5882 5882 5882 5881 5881 5880 5880 5880 5879 5879 5879 5879 5879 5879 5879 5879 5879 5879 5879 5879 5879 5879 5879 5879 5880 5880 5880 5880 5880
5880 5880 5881 5881 5881 5881 5881 5881 5881 5881 5881 5880 5880 5880 5880 5880 5879 5879 5879 5878 5878 5877 5877 5877 5877 5876 5876 5876 5876 5876 5876 5877 5877 5877 5877 5877 5877 5877 5877 5877 5877 5877 5877
5878 5878 5878 5879 5879 5879 5879 5879 5879 5879 5879 5878 5878 5878 5877 5877 5877 5877 5876 5876 5875 5875 5875 5874 5874 5874 5874 5874 5874 5874 5874 5874 5874 5874 5874 5874 5874 5874 5874 5874 5874 5874 5874
5876 5877 5877 5877 5877 5877 5877 5877 5877 5877 5876 5876 5876 5875 5875 5875 5874 5874 5874 5873 5873 5872 5872 5872 5872 5871 5871 5871 5871 5871 5871 5871 5871 5871 5871 5871 5871 5871 5871 5871 5871 5871 5871
5875 5875 5875 5875 5875 5875 5875 5875 5875 5874 5874 5874 5873 5873 5872 5872 5871 5871 5871 5871 5870 5870 5869 5869 5869 5869 5868 5868 5868 5868 5868 5868 5868 5868 5868 5868 5868 5868 5868 5868 5868 5868 5868
5873 5873 5873 5873 5873 5873 5872 5872 5872 5872 5871 5871 5870 5870 5870 5869 5869 5868 5868 5868 5867 5867 5866 5866 5866 5866 5865 5865 5865 5865 5865 5865 5865 5865 5865 5865 5865 5865 5865 5865 5864 5864 5864
5871 5871 5871 5871 5870 5870 5870 5869 5869 5869 5868 5868 5867 5867 5867 5866 5866 5865 5865 5864 5864 5864 5863 5863 5863 5863 5862 5862 5862 5862 5862 5862 5862 5862 5861 5861 5861 5861 5861 5861 5861 5861 5860
5869 5869 5868 5868 5867 5867 5866 5866 5866 5865 5865 5864 5864 5864 5863 5863 5862 5862 5862 5861 5861 5860 5860 5860 5859 5859 5859 5859 5859 5859 5858 5858 5858 5858 5858 5858 5858 5857 5857 5857 5857 5856 5856
5866 5866 5865 5865 5864 5863 5863 5862 5862 5861 5861 5861 5860 5860 5860 5859 5859 5858 5858 5858 5857 5857 5857 5856 5856 5856 5856 5855 5855 5855 5855 5855 5855 5854 5854 5854 5854 5853 5853 5853 5852 5852 5852
5863 5863 5862 5861 5860 5860 5859 5859 5858 5858 5857 5857 5856 5856 5856 5855 5855 5854 5854 5854 5853 5853 5853 5853 5852 5852 5852 5852 5851 5851 5851 5851 5851 5850 5850 5850 5849 5849 5849 5848 5848 5848 5847
5860 5859 5858 5857 5857 5856 5855 5855 5854 5853 5853 5852 5852 5852 5851 5851 5851 5850 5850 5850 5849 5849 5849 5848 5848 5848 5848 5847 5847 5847 5847 5846 5846 5846 5846 5845 5845 5845 5844 5844 5843 5843 5842
5857 5856 5855 5854 5853 5852 5851 5850 5850 5849 5848 5848 5847 5847 5847 5846 5846 5846 5845 5845 5844 5844 5844 5843 5843 5843 5843 5843 5842 5842 5842 5841 5841 5841 5841 5840 5840 5839 5839 5838 5838 5837 5836
5853 5852 5851 5850 5849 5848 5847 5846 5845 5844 5843 5843 5842 5842 5841 5841 5841 5840 5840 5840 5839 5839 5838 5838 5838 5837 5837 5837 5836 5836 5836 5835 5835 5835 5834 5834 5833 5833 5832 5832 5831 5830 5829
5849 5848 5847 5846 5845 5844 5842 5841 5840 5839 5838 5838 5837 5836 5836 5835 5835 5834 5834 5834 5833 5833 5832 5832 5831 5831 5831 5830 5830 5829 5829 5828 5828 5828 5827 5827 5826 5825 5825 5824 5823 5822 5821
5844 5843 5842 5841 5840 5839 5838 5836 5835 5834 5833 5832 5831 5830 5830 5829 5829 5828 5828 5827 5826 5826 5825 5825 5825 5824 5823 5823 5822 5821 5821 5820 5819 5819 5819 5818 5818 5817 5816 5815 5814 5813 5812
5840 5839 5838 5837 5835 5834 5833 5832 5830 5829 5828 5827 5825 5824 5824 5823 5822 5821 5821 5820 5819 5818 5818 5817 5817 5816 5815 5814 5813 5812 5811 5810 5810 5809 5809 5808 5808 5807 5806 5804 5803 5802 5801
5835 5834 5833 5832 5831 5829 5828 5826 5825 5823 5822 5821 5819 5818 5817 5816 5815 5814 5813 5812 5811 5810 5809 5809 5808 5807 5806 5804 5803 5802 5801 5800 5799 5798 5798 5797 5796 5795 5794 5793 5791 5790 5789
5830 5829 5828 5827 5826 5824 5823 5821 5819 5818 5816 5815 5813 5812 5810 5809 5808 5807 5805 5804 5803 5802 5801 5799 5798 5797 5795 5794 5793 5791 5790 5789 5788 5787 5786 5785 5784 5783 5781 5780 5778 5777 5776
5826 5824 5823 5822 5820 5819 5817 5815 5813 5812 5810 5808 5807 5805 5804 5802 5800 5799 5798 5796 5794 5793 5791 5790 5788 5787 5785 5783 5782 5780 5779 5777 5776 5775 5774 5772 5770 5769 5767 5766 5764 5763 5762
5821 5819 5817 5816 5814 5812 5811 5809 5807 5805 5803 5801 5800 5798 5796 5795 5793 5791 5789 5787 5786 5784 5782 5780 5778 5776 5775 5772 5770 5769 5767 5766 5764 5763 5761 5758 5757 5755 5753 5751 5750 5748 5747
5815 5813 5812 5810 5808 5806 5804 5802 5800 5798 5796 5794 5792 5790 5789 5787 5785 5783 5781 5779 5777 5775 5773 5771 5768 5766 5764 5761 5759 5757 5756 5754 5752 5750 5747 5745 5743 5741 5738 5736 5734 5733 5732
5809 5807 5805 5803 5801 5799 5797 5795 5793 5791 5789 5787 5785 5783 5781 5779 5777 5775 5773 5771 5768 5766 5763 5760 5757 5755 5753 5749 5747 5744 5743 5743 5740 5737 5734 5731 5728 5725 5723 5721 5718 5716 5715
5803 5801 5799 5797 5795 5792 5790 5788 5786 5783 5781 5780 5778 5775 5773 5771 5769 5766 5764 5761 5759 5756 5753 5750 5746 5744 5741 5738 5734 5730 5727 5726 5725 5724 5721 5717 5712 5709 5706 5704 5701 5699 5696
5797 5794 5792 5790 5788 5785 5783 5781 5779 5777 5775 5773 5770 5768 5765 5763 5760 5758 5755 5752 5749 5746 5743 5739 5735 5731 5728 5724 5720 5716 5711 5707 5704 5704 5704 5701 5697 5693 5689 5685 5682 5679 5677
5790 5788 5786 5783 5781 5779 5777 5775 5773 5770 5768 5765 5763 5760 5757 5755 5752 5749 5745 5742 5739 5735 5731 5727 5723 5718 5714 5709 5705 5700 5696 5690 5685 5681 5681 5680 5677 5674 5671 5667 5662 5659 5656
5784 5781 5779 5777 5775 5773 5771 5768 5766 5763 5761 5758 5755 5752 5749 5746 5742 5739 5735 5731 5727 5723 5718 5714 5709 5704 5699 5694 5688 5683 5677 5672 5667 5661 5658 5656 5653 5650 5646 5643 5641 5637 5633